Tiree, United Kingdom

1:08 AM GMT on March 24, 2017 (GMT +0000)
Tiree

Weather History for EGPU - November, 2012

Change the Weather History Date:

Tuesday, November 27, 2012

  Actual Average Record
Temperature  
Mean Temperature 44 °F -  
Max Temperature 45 °F 47 °F 53 °F (2002)
Min Temperature 42 °F 39 °F 30 °F (2010)
Degree Days  
Heating Degree Days 22    
Moisture  
Dew Point 35 °F    
Average Humidity 69    
Maximum Humidity 81    
Minimum Humidity 50    
Precipitation  
Precipitation 0.00 in 0.16 in - ()
Sea Level Pressure  
Sea Level Pressure 30.08 in    
Wind  
Wind Speed 22 mph ()    
Max Wind Speed 28 mph    
Max Gust Speed -    
Visibility 7.6 miles    
Events Rain    
Averages and records for this station are not official NWS values.
T = Trace of Precipitation, MM = Missing Value Source: Averaged Metar Reports

Daily Weather History Graph

Daily Weather History Graph

Search for Another Location

Airport or City:

Trip Planner

Search our weather history database for the weather conditions in past years. The results will help you decide how hot, cold, wet, or windy it might be!

Date:

Astronomy

Nov. 27, 2012 Rise Set
Actual Time 8:30 AM GMT 3:59 PM GMT
Civil Twilight 7:45 AM GMT 4:44 PM GMT
Nautical Twilight 6:57 AM GMT 5:32 PM GMT
Astronomical Twilight 6:11 AM GMT 6:18 PM GMT
Moon 3:25 PM GMT (11/27) 7:17 AM GMT (11/27)
Length of Visible Light 8h 59m
Length of Day
7h 28m
Waxing Gibbous, 99% of the Moon is Illuminated
Nov 27
Waxing Gibbous
Nov 28
Full
Dec 6
Last Quarter
Dec 13
New
Dec 20
First Quarter

Hourly Weather History & Observations

Time (GMT) Temp. Windchill Dew Point Humidity Pressure Visibility Wind Dir Wind Speed Gust Speed Precip Events Conditions
12:20 AM 42.8 °F 32.9 °F 32.0 °F 66% 29.98 in 6.2 mi NNE 26.5 mph - N/A   Scattered Clouds
12:50 AM 42.8 °F 32.7 °F 32.0 °F 66% 29.98 in 6.2 mi NNE 27.6 mph - N/A   Mostly Cloudy
1:20 AM 42.8 °F 33.1 °F 33.8 °F 70% 29.98 in 6.2 mi NNE 25.3 mph - N/A   Scattered Clouds
1:50 AM 42.8 °F 33.1 °F 32.0 °F 66% 29.98 in 6.2 mi NNE 25.3 mph - N/A   Mostly Cloudy
2:20 AM 42.8 °F 32.7 °F 30.2 °F 61% 29.98 in 6.2 mi NNE 27.6 mph - N/A   Partly Cloudy
2:50 AM 42 °F - 30 °F 50% 30.00 in 14 mi NNE 27.6 mph - -   Scattered Clouds
2:50 AM 42.8 °F 32.7 °F 30.2 °F 61% 29.98 in 6.2 mi NNE 27.6 mph - N/A   Partly Cloudy
3:20 AM 42.8 °F 33.1 °F 30.2 °F 61% 30.01 in 6.2 mi NNE 25.3 mph - N/A   Partly Cloudy
3:50 AM 42.8 °F 32.7 °F 30.2 °F 61% 30.01 in 6.2 mi NNE 27.6 mph - N/A   Partly Cloudy
4:20 AM 42.8 °F 32.9 °F 30.2 °F 61% 30.01 in 6.2 mi NNE 26.5 mph - N/A   Unknown
4:50 AM 42.8 °F 33.1 °F 32.0 °F 66% 30.01 in 6.2 mi NNE 25.3 mph - N/A   Partly Cloudy
5:20 AM 42.8 °F 32.9 °F 32.0 °F 66% 30.01 in 6.2 mi NNE 26.5 mph - N/A   Scattered Clouds
5:50 AM 42 °F - 34 °F 63% 30.03 in 22 mi NNE 23.0 mph - -  
5:50 AM 42.8 °F 33.5 °F 33.8 °F 70% 30.01 in 6.2 mi NNE 23.0 mph - N/A   Partly Cloudy
6:20 AM 42.8 °F 32.9 °F 33.8 °F 70% 30.04 in 6.2 mi NNE 26.5 mph - N/A   Scattered Clouds
6:50 AM 42.8 °F 33.3 °F 33.8 °F 70% 30.04 in 6.2 mi NNE 24.2 mph - N/A   Partly Cloudy
7:20 AM 42.8 °F 33.3 °F 33.8 °F 70% 30.04 in 6.2 mi NNE 24.2 mph - N/A   Scattered Clouds
8:50 AM 43 °F - 35 °F 63% 30.09 in 17 mi NNE 24.2 mph - -   Scattered Clouds
9:20 AM 44.6 °F 35.5 °F 35.6 °F 71% 30.09 in 6.2 mi NNE 25.3 mph - N/A   Scattered Clouds
9:50 AM 44.6 °F 35.7 °F 35.6 °F 71% 30.09 in 6.2 mi NNE 24.2 mph - N/A   Scattered Clouds
10:20 AM 44.6 °F 35.7 °F 35.6 °F 71% 30.09 in 6.2 mi NNE 24.2 mph - N/A   Mostly Cloudy
10:50 AM 44.6 °F 35.3 °F 35.6 °F 71% 30.09 in 6.2 mi NNE 26.5 mph - N/A   Scattered Clouds
11:20 AM 44.6 °F 35.5 °F 35.6 °F 71% 30.09 in 6.2 mi NNE 25.3 mph - N/A   Scattered Clouds
11:50 AM 45 °F - 36 °F 61% 30.11 in 15 mi NNE 24.2 mph - -   Partly Cloudy
11:50 AM 44.6 °F 35.7 °F 35.6 °F 71% 30.09 in 6.2 mi NNE 24.2 mph - N/A   Scattered Clouds
12:20 PM 44.6 °F 36.1 °F 35.6 °F 71% 30.09 in 6.2 mi NNE 21.9 mph - N/A   Scattered Clouds
12:50 PM 44.6 °F 35.9 °F 35.6 °F 71% 30.09 in 6.2 mi NNE 23.0 mph - N/A   Unknown
2:50 PM - - - %  in - North 23.0 mph - -   Scattered Clouds
4:50 PM 44.6 °F 35.7 °F 37.4 °F 76% 30.12 in 6.2 mi NNE 24.2 mph - N/A   Scattered Clouds
5:20 PM 44.6 °F 35.7 °F 37.4 °F 76% 30.12 in 6.2 mi NNE 24.2 mph - N/A   Unknown
5:50 PM 44 °F - 38 °F 71% 30.15 in 16 mi NNE 20.7 mph - -   Scattered Clouds
5:50 PM 44.6 °F 36.4 °F 37.4 °F 76% 30.15 in 6.2 mi NNE 20.7 mph - N/A   Partly Cloudy
6:20 PM 44.6 °F 36.6 °F 37.4 °F 76% 30.15 in 6.2 mi NNE 19.6 mph - N/A   Mostly Cloudy
6:50 PM 44.6 °F 36.4 °F 35.6 °F 71% 30.15 in 6.2 mi NNE 20.7 mph - N/A   Mostly Cloudy
7:20 PM 44.6 °F 36.4 °F 35.6 °F 71% 30.15 in 6.2 mi NNE 20.7 mph - N/A   Scattered Clouds
7:50 PM 42.8 °F 34.3 °F 35.6 °F 76% 30.15 in 6.2 mi NNE 19.6 mph - N/A   Partly Cloudy
8:20 PM 44.6 °F 36.1 °F 35.6 °F 71% 30.15 in 6.2 mi NNE 21.9 mph - N/A   Partly Cloudy
8:50 PM 44 °F - 36 °F 66% 30.17 in 19 mi NNE 20.7 mph - - Rain Rain
8:50 PM 44.6 °F 36.4 °F 37.4 °F 76% 30.15 in 6.2 mi NNE 20.7 mph - N/A   Scattered Clouds
9:20 PM 42.8 °F 34.0 °F 35.6 °F 76% 30.15 in 6.2 mi NNE 20.7 mph - N/A   Scattered Clouds
9:50 PM 42.8 °F 34.0 °F 35.6 °F 76% 30.15 in 6.2 mi NNE 20.7 mph - N/A   Partly Cloudy
10:20 PM 44.6 °F 37.8 °F 37.4 °F 76% 30.15 in 6.2 mi NNE 15.0 mph - N/A   Partly Cloudy
10:50 PM 42.8 °F 33.8 °F 35.6 °F 76% 30.15 in 6.2 mi NNE 21.9 mph - N/A   Scattered Clouds
11:20 PM 44.6 °F 36.6 °F 35.6 °F 71% 30.15 in 6.2 mi NNE 19.6 mph - N/A   Mostly Cloudy
11:50 PM 43 °F - 36 °F 70% 30.18 in 19 mi NNE 17.3 mph - -   Mostly Cloudy
11:50 PM 42.8 °F 34.8 °F 37.4 °F 81% 30.18 in 6.2 mi NNE 17.3 mph - N/A   Mostly Cloudy